Regional Weather Roundup
Issued by NWS State College, PA

Home | Current Version | Previous Version | Text Only | Print | Product List | Glossary On
Versions: 1 2 3 4 5 6 7 8 9 10 11 12 13 14 15 16 17 18 19 20 21 22 23 24 25 26 27 28 29 30 31 32 33 34 35 36 37 38 39 40 41 42 43 44 45 46 47 48 49 50
000
ASUS41 KCTP 242210
RWRCTP

REGIONAL WEATHER ROUNDUP
NATIONAL WEATHER SERVICE STATE COLLEGE PA
600 PM EDT FRI OCT 24 2014

Note: "fair" indicates few or no clouds below 12,000 feet with no
significant weather and/or obstructions to visibility.

* = STATION THAT DOES NOT REPORT PRECIPITATION /E.G. RAIN...SNOW...ETC/
    THUNDER OR FOG.

PAZ002>004-007>009-013>016-020>023-029>032-242300-
WESTERN PENNSYLVANIA

CITY           SKY/WX    TMP DP  RH WIND       PRES   REMARKS
ERIE           CLEAR     55  44  66 W9        29.99S
MEADVILLE      CLEAR     55  40  56 W7        29.99R
FRANKLIN*      CLEAR     55  39  54 W7        29.99S
NEW CASTLE       N/A     59  37  43 CALM      30.00S
BEAVER COUNTY  CLEAR     59  37  44 W6        30.00S
BUTLER*        CLEAR     57  36  44 W5        30.01S
PITTSBURGH INT PTCLDY    59  35  40 W7        29.99F
PITTSBURGH     CLEAR     58  34  40 W8        29.99F
INDIANA*       CLEAR     55  39  54 W6        30.02S
LATROBE        MOCLDY    55  41  58 W12       30.01R
WASHINGTON CO* CLEAR     57  37  47 W3        30.02S
$$

PAZ004>006-010>012-017>019-024>028-033>037-041-042-045-046-049>053-242300-
CENTRAL PENNSYLVANIA

CITY           SKY/WX    TMP DP  RH WIND       PRES   REMARKS
BRADFORD       CLEAR     52  32  46 NW8       29.95S
DUBOIS         MOCLDY    55  36  48 W8        29.96S
CLEARFIELD     MOCLDY    57  35  43 W9        29.95S
JOHNSTOWN      PTCLDY    51  37  58 W14       29.98S
ALTOONA        CLOUDY    54  40  59 NW7       29.96S
STATE COLLEGE  CLEAR     59  36  41 NW7       29.93R
WILLIAMSPORT   MOCLDY    64  28  25 N5        29.86R
SELINSGROVE    MOCLDY    63  33  32 VRB3      29.87S
FT INDIANTOWN  CLOUDY    64  34  32 W10       29.86R
CAPITAL CITY   CLOUDY    63  35  35 W10       29.88R
HARRISBURG     CLOUDY    61  38  42 NW10      29.87R
YORK           CLOUDY    62  33  33 W8        29.89R
$$

PAZ038>040-043-044-047-048-054-055-060>062-067>071-242300-
EASTERN PENNSYLVANIA

CITY           SKY/WX    TMP DP  RH WIND       PRES   REMARKS
SCRANTON       CLEAR     61  41  47 N10       29.85S
MOUNT POCONO   CLEAR     56  39  53 NW12      29.83R
ALLENTOWN      PTCLDY    64  41  42 NW13G18   29.82R
QUAKERTOWN*    PTCLDY    63  43  48 CALM      29.83R
READING        MOCLDY    65  36  34 W12       29.83R
LANCASTER      CLOUDY    60  36  40 W9        29.86R
COATESVILLE    CLOUDY    61  37  41 NW16      29.85S
POTTSTOWN      MOCLDY    63  43  48 W3        29.84R
BLUE BELL      MOCLDY    64  45  48 CALM      29.81R
DOYLESTOWN     PTCLDY    63  42  46 NW9       29.81R
WILLOW GROVE   NOT AVBL
NORTH PHILA    MOCLDY    66  41  40 NW5       29.82R
PHILADELPHIA   MOCLDY    67  43  41 W10       29.82R
$$



USA.gov is the U.S. government's official web portal to all federal, state and local government web resources and services.